Location: Ottawa
(45.4170°N, 75.7000°W)
Time: 00:49:16
(UTC-04:00)

Iridium 91 - Visible Passes

Search period start: 20 August 2014 00:00
Search period end: 30 August 2014 00:00
Orbit: 776 x 779 km, 86.4° (Epoch: 19 August)

Date Brightness Start Highest point End Pass type
(mag) Time Alt. Az. Time Alt. Az. Time Alt. Az.
20 Aug 5.9 02:56:16 53° ESE 02:56:54 57° E 03:02:00 10° N visible
20 Aug 7.0 04:36:46 18° W 04:38:02 19° WNW 04:41:43 10° NNW visible
21 Aug 6.8 02:23:05 32° E 02:23:32 32° E 02:28:08 10° NNE visible
21 Aug 6.3 04:03:34 31° W 04:04:12 32° WNW 04:08:53 10° NNW visible
22 Aug 7.5 01:49:53 19° E 01:50:17 19° ENE 01:53:50 10° NE visible
22 Aug 5.6 03:30:22 57° W 03:30:31 57° W 03:35:40 10° N visible
23 Aug 8.1 01:16:40 10° ENE 01:17:10 10° ENE 01:18:00 10° ENE visible
23 Aug 5.5 02:57:09 79° NE 02:57:09 79° NE 03:02:11 10° N visible
23 Aug 7.4 04:37:38 13° W 04:38:23 14° WNW 04:40:58 10° NW visible
24 Aug 6.4 02:23:56 45° ENE 02:23:56 45° ENE 02:28:28 10° NNE visible
24 Aug 6.8 04:04:25 24° WNW 04:04:28 24° WNW 04:08:37 10° NNW visible
25 Aug 7.2 01:50:42 26° ENE 01:50:42 26° ENE 01:54:28 10° NNE visible
25 Aug 6.2 03:31:11 39° WNW 03:31:11 39° WNW 03:35:37 10° N visible
26 Aug 7.8 01:17:27 15° ENE 01:17:27 15° ENE 01:19:53 10° NE visible
26 Aug 5.8 02:57:56 59° NNW 02:57:56 59° NNW 03:02:17 10° N visible
27 Aug 6.3 02:24:41 50° NE 02:24:41 50° NE 02:28:43 10° N visible
27 Aug 7.3 04:05:10 17° WNW 04:05:10 17° WNW 04:08:09 10° NNW visible
28 Aug 7.0 01:51:26 32° NE 01:51:26 32° NE 01:54:53 10° NNE visible
28 Aug 6.8 03:31:55 27° WNW 03:31:55 27° WNW 03:35:27 10° NNW visible
29 Aug 7.6 01:18:10 19° ENE 01:18:10 19° ENE 01:20:43 10° NNE visible
29 Aug 6.5 02:58:39 39° NW 02:58:39 39° NW 03:02:17 10° N visible
